Regional Weather Roundup
Issued by NWS

Home | Current Version | Previous Version | Graphics & Text | Print | Product List | Glossary On
Versions: 1 2 3 4 5 6 7 8 9 10 11 12 13 14 15 16 17 18 19 20 21 22 23 24 25 26 27 28 29 30 31 32 33 34 35 36 37 38 39 40 41 42 43 44 45 46 47 48 49 50
116
ASUS45 KTFX 222210
RWRMT
MONTANA REGIONAL WEATHER ROUNDUP
NATIONAL WEATHER SERVICE GREAT FALLS MT
400 PM MDT SUN APR 22 2018

NOTE: "FAIR" INDICATES FEW OR NO CLOUDS BELOW 12000 FEET WITH NO
SIGNIFICANT WEATHER AND/OR OBSTRUCTIONS TO VISIBILITY.

MTZ001>007-043-222300-
WEST OF THE DIVIDE

CITY           SKY/WX    TMP DP  RH WIND       PRES   REMARKS
KALISPELL      CLOUDY    55  19  24 MISG      30.15F
MISSOULA       FAIR      58  21  24 N8G20     30.10F
BUTTE          FAIR      57  25  29 W14       30.06F
MULLAN PASS    FAIR      42  14  32 VRB3      30.16F
ANACONDA         N/A     54  23  30 MISG      30.07F
DEER LODGE       N/A     54  25  32 MISG      30.10F
HAMILTON         N/A     57  21  24 MISG      30.10F
RONAN            N/A     55  18  22 VRB7G14   30.17F
$$

MTZ008-052>055-222300-
SOUTHWEST MONTANA

CITY           SKY/WX    TMP DP  RH WIND       PRES   REMARKS
BOZEMAN        FAIR      62  29  28 VRB5      30.03F
DILLON         FAIR      64  28  25 E8        29.98F
ENNIS          LGT RAIN  57  32  38 N13       30.05F
W YELLOWSTONE  FAIR      55  27  33 SW13G23   30.07F
THREE FORKS      N/A     63  28  26 N9        30.02F
$$

MTZ009-010-012-014-046-048-049-054-222300-
EAST SLOPES AND CENTRAL MONTANA

CITY           SKY/WX    TMP DP  RH WIND       PRES   REMARKS
CUT BANK       FAIR      53  13  20 NW14G20   30.13S
GREAT FALLS    FAIR      57  14  18 NW13G20   30.11S
HELENA         FAIR      62  25  24 W14G20    30.07F
CHOTEAU          N/A     55  16  21 NE12      30.13F
POWER          FAIR      54  18  23 NW7       30.11S
ULM            FAIR      58  15  18 NW8       30.09F
WHITE SULPHUR    N/A     55  25  30 N12       30.06F
$$

MTZ011-013-016-021-045-047-050-051-222300-
NORTH CENTRAL MONTANA

CITY           SKY/WX    TMP DP  RH WIND       PRES   REMARKS
HAVRE          FAIR      58  22  24 NW10G20   30.10F
LEWISTOWN      FAIR      58  26  29 N12       30.08F
N BAR RANCH    FAIR      59  23  25 E10G18    30.10F
CHINOOK          N/A     59  23  25 MISG      30.09F
GRASS RANGE    PTSUNNY   58  28  31 NE13      30.05S
$$

MTZ017>020-022>027-061-062-222300-
NORTHEAST MONTANA

CITY           SKY/WX    TMP DP  RH WIND       PRES   REMARKS
GLASGOW        FAIR      63  24  22 NW6       30.08F
GLENDIVE       FAIR      66  22  18 CALM      30.09F
JORDAN           N/A     62  25  24 CALM      30.08F
MALTA          MOSUNNY   59  27  29 N7G15     30.07F
SIDNEY         FAIR      66  23  19 W10       30.09S
WOLF POINT     FAIR      67  25  20 W13G22    30.09F
PLENTYWOOD       N/A     63  23  22 MISG      30.06F
POPLAR           N/A     64  23  20 SW13      30.09S
$$

MTZ028>42-056>058-222300-
SOUTHCENTRAL AND SOUTHEAST MONTANA

CITY           SKY/WX    TMP DP  RH WIND       PRES   REMARKS
BAKER          FAIR      64  22  20 S5        30.10F
BILLINGS       FAIR      64  30  27 NE10G18   30.05F
LIVINGSTON     CLOUDY    63  31  30 E12       30.02F
MILES CITY     FAIR      65  24  21 E7        30.08F
BIG TIMBER     MOSUNNY   61  27  27 CALM      30.06
FORSYTH          N/A     64  27  24 E10       30.07F
LAUREL           N/A     64  27  24 NE10G17   30.05S
$$

REGIONAL REPORTS...DAKOTAS

CITY           SKY/WX    TMP DP  RH WIND       PRES   REMARKS
WILLISTON      FAIR      67  24  19 SW14      30.08F
MINOT          PTSUNNY   62  29  28 W6        30.09F
DICKINSON      CLOUDY    67  21  17 MISG      30.07F
BEACH          FAIR      64  16  15 VRB6G14   30.13S
CROSBY         PTSUNNY   63  27  25 W17       30.07F
TIOGA          FAIR      63  30  29 W15       30.10F
BISMARCK       FAIR      69  40  34 SW8       30.07F
GRAND FORKS    FAIR      61  46  57 S18G28    30.13F
FARGO          FAIR      66  41  40 S18G29    30.15F
BUFFALO SD       N/A     69  32  25 SE7       30.00F
RAPID CITY     FAIR      65  38  36 E6        30.07F
$$

REGIONAL REPORTS...WYOMING/IDAHO/WASHINGTON

CITY           SKY/WX    TMP DP  RH WIND       PRES   REMARKS
GILLETTE       FAIR      69  38  32 VRB3      30.03F
SHERIDAN       FAIR      69  35  28 E8        30.03F
BUFFALO WY     FAIR      67  34  29 SE9       30.04F
CODY           FAIR      65  28  24 VRB3      30.03F
YELLOWSTONE LA   N/A     51  23  33 CALM      30.15F
IDAHO FALLS    FAIR      70  29  21 SW12G23   30.00F
SALMON         CLOUDY    64  33  31 N9        29.97F
BOISE          FAIR      64  30  27 NW20G26   30.03F
SPOKANE        PTSUNNY   54  20  26 E3        30.22F
$$

REGIONAL REPORTS...ALBERTA

CITY           SKY/WX    TMP DP  RH WIND       PRES   REMARKS
CALGARY        MOSUNNY   48  12  23 VRB2      30.15R
CARDSTON         N/A     48  18  29 N8          N/A
EDMONTON       PTSUNNY   48  27  43 NW15G30   30.13R
FORT MCMURRAY  CLOUDY    46  36  66 W15G22    29.98R
HIGH LEVEL     MOSUNNY   45  27  49 NW9       30.11R
LETHBRIDGE     PTSUNNY   52  18  25 NE13G20   30.17R
LLOYDMINSTER   PTSUNNY   45  34  65 NW22G30   30.03S
MEDICINE HAT   PTSUNNY   57  19  23 W14       30.13R
MILK RIVER       N/A     55  23  28 N12G17      N/A
PEACE RIVER    PTSUNNY   46  28  49 W18G26    30.16S
PINCHER CREEK  MOSUNNY   46  16  29 E9G17     30.17R
WATERTON GATE    N/A     50  16  25 SW8         N/A
$$

REGIONAL REPORTS...SASKATCHEWAN

CITY           SKY/WX    TMP DP  RH WIND       PRES   REMARKS
CORONACH         N/A     61  18  18 W18G26      N/A
CYPRESS HILLS    N/A     48  16  27 NW8         N/A
ESTEVAN        MOSUNNY   63  25  23 W16       30.06F
MOOSE JAW        N/A     61  21  21 W21         N/A
PRINCE ALBERT  PTSUNNY   48  36  61 W22G29    29.90R
REGINA         MOSUNNY   59  27  29 W29G36    30.05S
ROCKGLEN         N/A     59  21  23 W14G22      N/A
SASKATOON      MOSUNNY   52  34  50 W29G38    30.01R
SWIFT CURRENT  MOSUNNY   55  23  28 NW22G32   30.08S
VAL MARIE        N/A     59  23  25 W14G21      N/A
$$




USA.gov is the U.S. government's official web portal to all federal, state and local government web resources and services.